Location: Maiden
(35.5760°N, 81.2120°W)
Time: 11:32:11
(UTC-04:00)

X-37B - Visible Passes

Search period start: 12 June 2021 00:00
Search period end: 22 June 2021 00:00
Orbit: 386 x 389 km, 45.0° (Epoch: 10 June)

Date Brightness Start Highest point End Pass type
(mag) Time Alt. Az. Time Alt. Az. Time Alt. Az.
12 Jun 1.7 03:57:06 38° NNW 03:57:07 38° NNW 04:00:07 10° NE visible
12 Jun 3.3 05:32:18 10° NW 05:34:20 16° N 05:36:22 10° NNE visible
13 Jun 3.5 03:01:02 17° NE 03:01:02 17° NE 03:01:51 10° NE visible
13 Jun 3.0 04:33:23 10° WNW 04:35:43 19° NNW 04:38:04 10° NE visible
14 Jun 2.6 03:37:12 25° NNW 03:37:12 25° NNW 03:39:51 10° NE visible
14 Jun 3.4 05:12:37 10° NW 05:14:31 15° N 05:16:25 10° NE visible
15 Jun 3.8 02:41:07 14° NE 02:41:07 14° NE 02:41:39 10° NE visible
15 Jun 3.4 04:13:50 10° NW 04:15:52 16° N 04:17:54 10° NNE visible
16 Jun 3.2 03:17:16 19° NNW 03:17:16 19° NNW 03:19:35 10° NE visible
16 Jun 3.5 04:52:42 10° NNW 04:54:42 15° N 04:56:43 10° NE visible
17 Jun 4.1 02:21:11 11° NE 02:21:11 11° NE 02:21:22 10° NE visible
17 Jun 3.6 03:54:09 10° NW 03:56:03 15° N 03:57:57 10° NE visible
17 Jun 3.0 05:30:47 10° NW 05:33:26 24° NNE 05:36:06 10° ENE visible
18 Jun 3.6 02:57:24 16° N 02:57:24 16° N 02:59:26 10° NNE visible
18 Jun 3.5 04:32:34 10° NW 04:34:52 18° NNE 04:37:10 10° ENE visible
19 Jun 3.7 03:34:14 10° NNW 03:36:15 15° N 03:38:15 10° NE visible
19 Jun 2.2 05:10:31 10° NW 05:13:29 36° NNE 05:16:27 10° E visible
20 Jun 3.8 02:37:55 15° N 02:37:55 15° N 02:39:29 10° NE visible
20 Jun 3.0 04:12:18 10° NW 04:14:58 24° NNE 04:17:39 10° ENE visible
21 Jun 3.5 03:14:49 13° NNW 03:16:24 18° NNE 03:18:43 10° ENE visible
21 Jun 0.9 04:50:17 10° NW 04:53:27 67° NNE 04:56:36 10° ESE visible
21 Jun 2.4 21:25:17 10° S 21:26:58 14° SE 21:28:32 10° ESE visible
21 Jun 2.8 23:00:08 10° WSW 23:01:06 18° WSW 23:01:06 18° WSW visible
